Content
SEND FEEDBACK

Daily
Averages
Monthly
Summary
Mexico

SAN MARTINIANO, QUINTANA ROO


Home > North America > Mexico > Quintana Roo
Elevation: 15 meters     Latitude: 20 47N     Longitude: 087 16W

WEATHER
 
SELECT A DAY
Number of Records: 196,766;   Date Range: 2/21/06 - 9/16/14
 
SHARE

PRINT THIS DATA

[ ← Previous Day ]
WEATHER ALMANAC - 21 NOVEMBER, 2013
[ Next Day → ]
[ °F ]   °C
Weather ElementAverageHighLow
Temperature24 °C29 °C (12:55 pm)22 °C (12:35 am)
Dewpoint0.4 °C23 °C (8:35 pm) (7:00 pm)
Humidity73.2 %100 % (8:35 pm)54 % (1:15 pm)
Barometer1021.7 hPa1023.4 hPa (9:35 pm)1020 hPa (1:35 am)
Wind Speed12.1 km/h25.9 km/h (3:35 pm)
Wind Gust38.9 km/h (3:15 pm)
Weather ElementAverage
Visibility14.8 km
Wind DirectionENE (62.3 °)

Weather ElementTotal
Precipitation---
Cooling Degree Days7.2 (Base 18.3)
Growing Degree Days15.5 (Base 10)
Averaged from 71 records on 21 November, 2013
WEATHER CONDITIONS BREAKOUT
WIND DIRECTION BREAKOUT
WEATHER BY HOUR - 21 NOVEMBER, 2013
[ °F ]   °C
Local TimeTemperatureDewpointHumidityBarometerVisibilityWind DirectionWind SpeedGust SpeedPrecipitationEventsConditions
12:35 AM22 °C-17.8 °C1020.3 hPa11.3 kmENE (60°)7.4 km/hOvercast
12:55 AM23 °C-17.8 °C1020.3 hPa11.3 kmENE (60°)9.3 km/hOvercast
1:15 AM23 °C-17.8 °C1020.3 hPa11.3 kmEast (80°)7.4 km/hOvercast
1:35 AM22 °C-17.8 °C1020 hPa11.3 kmENE (70°)7.4 km/hMostly Cloudy
1:55 AM22 °C-17.8 °C1020 hPa11.3 kmENE (70°)7.4 km/hScattered Clouds
2:15 AM22 °C-17.8 °C1020 hPa11.3 kmENE (60°)7.4 km/hScattered Clouds
2:35 AM22 °C-17.8 °C1020 hPa11.3 kmNE (50°)7.4 km/hClear
2:55 AM22 °C-17.8 °C1020 hPa11.3 kmNE (40°)7.4 km/hClear
3:15 AM22 °C-17.8 °C1020 hPa11.3 kmENE (60°)9.3 km/hScattered Clouds
3:35 AM22 °C-17.8 °C1020 hPa11.3 kmCalmMostly Cloudy
3:55 AM22 °C-17.8 °C1020.3 hPa11.3 kmNE (40°)5.6 km/hScattered Clouds
4:15 AM22 °C-17.8 °C1020.3 hPa11.3 kmCalmMostly Cloudy
4:35 AM22 °C-17.8 °C1020.3 hPa11.3 kmNNE (30°)5.6 km/hMostly Cloudy
4:55 AM22 °C-17.8 °C1020.7 hPa11.3 kmNE (40°)5.6 km/hScattered Clouds
5:15 AM22 °C-17.8 °C1020.7 hPa11.3 kmNE (40°)5.6 km/hScattered Clouds
5:35 AM22 °C-17.8 °C1020.7 hPa11.3 kmNE (50°)9.3 km/hMostly Cloudy
5:55 AM22 °C-17.8 °C1021 hPa11.3 kmNE (50°)9.3 km/hMostly Cloudy
6:15 AM22 °C-17.8 °C1021.3 hPa16.1 kmNE (50°)5.6 km/hMostly Cloudy
6:35 AM22 °C-17.8 °C1021.3 hPa16.1 kmNE (40°)7.4 km/hOvercast
6:55 AM22 °C-17.8 °C1021.7 hPa16.1 kmCalmMostly Cloudy
7:15 AM22 °C-17.8 °C1021.7 hPa11.3 kmNE (50°)7.4 km/hScattered Clouds
7:35 AM22 °C-17.8 °C1021.7 hPa11.3 kmNE (40°)9.3 km/hScattered Clouds
7:55 AM22 °C-17.8 °C1021.7 hPa16.1 kmNE (40°)7.4 km/hClear
8:15 AM23 °C-17.8 °C1022 hPa16.1 kmENE (70°)7.4 km/hClear
8:35 AM23 °C-17.8 °C1022.4 hPa16.1 kmNE (40°)9.3 km/hClear
8:55 AM23 °C-17.8 °C1022.4 hPa16.1 kmENE (60°)9.3 km/hScattered Clouds
9:15 AM24 °C-17.8 °C1022.7 hPa16.1 kmNE (40°)9.3 km/hOvercast
9:35 AM25 °C-17.8 °C1022.7 hPa16.1 kmNE (50°)13 km/hOvercast
9:55 AM26 °C-17.8 °C1022.7 hPa16.1 kmEast (80°)13 km/hScattered Clouds
10:15 AM26 °C20 °C69 %1022.7 hPa16.1 kmEast (80°)13 km/hScattered Clouds
10:35 AM27 °C20 °C65 %1022.7 hPa16.1 kmEast (100°)13 km/h25.9 km/hMostly Cloudy
10:55 AM27 °C20 °C65 %1022.7 hPa16.1 kmEast (80°)16.7 km/h27.8 km/hMostly Cloudy
11:15 AM27 °C19 °C61 %1022.4 hPa16.1 kmEast (90°)14.8 km/h29.6 km/hMostly Cloudy
11:35 AM27 °C19 °C61 %1022 hPa16.1 kmENE (70°)18.5 km/hMostly Cloudy
11:55 AM28 °C19 °C58 %1021.7 hPa16.1 kmEast (80°)14.8 km/h25.9 km/hOvercast
12:15 PM28 °C19 °C58 %1021.7 hPa16.1 kmEast (90°)13 km/h25.9 km/hOvercast
12:35 PM28 °C19 °C58 %1021.3 hPa16.1 kmEast (80°)13 km/hOvercast
12:55 PM29 °C19 °C55 %1021 hPa16.1 kmENE (70°)14.8 km/hOvercast
1:15 PM28 °C18 °C54 %1021 hPa16.1 kmEast (90°)11.1 km/hOvercast
1:35 PM29 °C19 °C55 %1020.7 hPa16.1 kmEast (80°)14.8 km/hOvercast
1:55 PM27 °C20 °C65 %1020.7 hPa16.1 kmNE (50°)20.4 km/h31.5 km/hOvercast
2:15 PM27 °C20 °C65 %1020.7 hPa16.1 kmENE (60°)16.7 km/h25.9 km/hMostly Cloudy
2:35 PM28 °C20 °C62 %1020.7 hPa16.1 kmNE (50°)20.4 km/h29.6 km/hMostly Cloudy
2:55 PM27 °C21 °C70 %1020.7 hPa16.1 kmENE (60°)22.2 km/h37 km/hScattered Clouds
3:15 PM27 °C20 °C65 %1020.7 hPa16.1 kmEast (80°)24.1 km/h38.9 km/hMostly Cloudy
3:35 PM25 °C20 °C74 %1020.7 hPa16.1 kmNE (50°)25.9 km/h33.3 km/hMostly Cloudy
3:55 PM25 °C20 °C74 %1020.7 hPa16.1 kmENE (60°)24.1 km/hScattered Clouds
4:15 PM25 °C20 °C74 %1021 hPa16.1 kmENE (60°)24.1 km/h37 km/hMostly Cloudy
4:35 PM25 °C20 °C74 %1021.3 hPa16.1 kmEast (80°)22.2 km/h33.3 km/hOvercast
4:55 PM25 °C20 °C74 %1021.3 hPa16.1 kmENE (70°)18.5 km/hOvercast
5:15 PM25 °C20 °C74 %1021.7 hPa16.1 kmEast (80°)13 km/h25.9 km/hOvercast
5:35 PM24 °C20 °C78 %1021.7 hPa16.1 kmENE (70°)24.1 km/h33.3 km/hOvercast
5:55 PM24 °C20 °C78 %1022 hPa16.1 kmENE (70°)20.4 km/h31.5 km/hOvercast
6:15 PM23 °C21 °C88 %1022.4 hPa16.1 kmEast (80°)14.8 km/hOvercast
6:35 PM23 °C22 °C94 %1022.4 hPa16.1 kmEast (80°)16.7 km/h25.9 km/hOvercast
6:55 PM23 °C21 °C88 %1022.7 hPa16.1 kmEast (80°)14.8 km/h25.9 km/hOvercast
7:15 PM23 °C20 °C83 %1022.7 hPa16.1 kmEast (80°)14.8 km/hOvercast
7:35 PM23 °C20 °C83 %1022.7 hPa16.1 kmEast (80°)14.8 km/hOvercast
7:55 PM23 °C20 °C83 %1023 hPa16.1 kmENE (70°)18.5 km/h25.9 km/hOvercast
8:15 PM23 °C20 °C83 %1023 hPa16.1 kmENE (70°)11.1 km/hOvercast
8:35 PM23 °C23 °C100 %1023 hPa16.1 kmNE (50°)13 km/hOvercast
8:55 PM23 °C-17.8 °C1023 hPa16.1 kmENE (60°)14.8 km/hOvercast
9:15 PM23 °C-17.8 °C1023 hPa16.1 kmENE (70°)13 km/hOvercast
9:35 PM23 °C-17.8 °C1023.4 hPa16.1 kmEast (90°)9.3 km/hOvercast
9:55 PM23 °C23 °C100 %1023.4 hPa16.1 kmENE (70°)11.1 km/hOvercast
10:15 PM23 °C23 °C100 %1023.4 hPa16.1 kmEast (80°)11.1 km/hOvercast
10:35 PM23 °C-17.8 °C1023 hPa16.1 kmEast (90°)9.3 km/hOvercast
10:55 PM23 °C-17.8 °C1023.4 hPa16.1 kmEast (80°)7.4 km/hOvercast
11:15 PM23 °C-17.8 °C1023 hPa16.1 kmEast (80°)7.4 km/hOvercast
11:35 PM23 °C-17.8 °C1023 hPa16.1 kmNE (40°)5.6 km/hOvercast
11:55 PM23 °C-17.8 °C1023 hPa16.1 kmENE (60°)7.4 km/hOvercast
Hourly data recorded from KPCM, located 0 kilometers away from San Martiniano, Quintana Roo







STORIES FROM OUR PARTNERS